Location: Betpouey
(42.8833°N, 0.0333°E)
Time: 22:30:20
(UTC+00:00)

Cosmos 2285 Rocket - Pass Details

Date: 01 December 2020
Orbit: 971 x 998 km, 74.0° (Epoch: 18 January)

Event Time Altitude Azimuth Distance (km) Brightness Sun altitude
Rises 17:26:12 0° 338° (NNW) 3,713 7.1 -10.7°
Reaches altitude 10° 17:28:46 10° 338° (NNW) 2,757 6.4 -11.2°
Maximum altitude 17:35:10 82° 252° (WSW) 997 4.1 -12.3°
Drops below altitude 10° 17:41:29 10° 166° (SSE) 2,721 6.4 -13.4°
Sets 17:44:00 0° 165° (SSE) 3,661 7.0 -13.8°
